Location: Kellogg
(38.0159°N, 90.0546°W)
Time: 18:38:34
(UTC+00:00)

S-56A Canister/Altair - Pass Details

Date: 14 September 2024
Orbit: 636 x 2487 km, 38.9° (Epoch: 04 October)

Event Time Altitude Azimuth Distance (km) Brightness Sun altitude
Rises 00:22:28 0° 233° (SW) 3,139 11.5 -3.2°
Reaches altitude 10° 00:24:36 10° 228° (SW) 2,343 10.7 -3.6°
Maximum altitude 00:29:54 54° 152° (SSE) 1,180 8.3 -4.7°
Drops below altitude 10° 00:37:36 10° 78° (ENE) 3,383 10.2 -6.2°
Enters shadow 00:39:48 - 75° (ENE) 4,161 10.7 -6.6°
Sets 00:41:16 0° 74° (ENE) 4,673 - -6.9°
